Regional Weather Roundup
Issued by NWS

Home | Current Version | Previous Version | Graphics & Text | Print | Product List | Glossary On
Versions: 1 2 3 4 5 6 7 8 9 10 11 12 13 14 15 16 17 18 19 20 21 22 23 24 25 26 27 28 29 30 31 32 33 34 35 36 37 38 39 40 41 42 43 44 45 46 47 48 49 50
000
ASUS45 KCYS 241310
RWRWY

WYOMING REGIONAL WEATHER ROUNDUP
NATIONAL WEATHER SERVICE CHEYENNE WY
700 AM MDT THU MAY 24 2018

NOTE:  "FAIR" INDICATES FEW OR NO CLOUDS BELOW 12,000 FEET
WITH NO SIGNIFICANT WEATHER AND/OR OBSTRUCTIONS TO VISIBILITY.

WYZ001-241400-
YELLOWSTONE NATIONAL PARK

CITY           SKY/WX    TMP DP  RH WIND       PRES   REMARKS
LK YELLOWSTONE   N/A     36  36 100 CALM      30.22R
W YELLOWSTONE  NOT AVBL

$$
WYZ002>013-054>058-071-098>099-241400-
NORTHERN WYOMING

CITY           SKY/WX    TMP DP  RH WIND       PRES   REMARKS
JACKSON        LGT RAIN  43  42  97 CALM      30.19R
CODY           FAIR      56  45  66 SE6       30.02R
GREYBULL       FAIR      52  51  97 SE5       29.99R
WORLAND        FAIR      53  52  96 SW3       30.00R
SHERIDAN       FAIR      55  51  86 CALM      29.95R
BUFFALO        FAIR      58  48  69 VRB3      30.00R
GILLETTE         N/A     57  50  77 W9        29.97R
NEWCASTLE      FAIR      57  43  58 S6        30.01R

$$
WYZ014>020-022>026-101>103-241400-
CENTRAL WYOMING

CITY           SKY/WX    TMP DP  RH WIND       PRES   REMARKS
BIG PINEY      PTSUNNY   41  40  96 E3        30.22R
PINEDALE       CLOUDY    39  39 100 W3        30.23R
DUBOIS         FAIR      45  37  76 NW12      30.15R
LANDER         FAIR      51  42  71 NW3       30.07R
RIVERTON       FAIR      52  44  74 W6        30.08R
CASPER         FAIR      54  42  64 SW9       30.07R
DOUGLAS        FAIR      54  47  77 E3        30.06R

$$
WYZ021-027>030-104>119-241400-
SOUTHERN WYOMING

CITY           SKY/WX    TMP DP  RH WIND       PRES   REMARKS
EVANSTON       FAIR      45  38  76 S7        30.21R
KEMMERER       FAIR      43  37  81 N3        30.22R
FORT BRIDGER   FAIR      51  36  56 W7        30.24R
ROCK SPRINGS   FAIR      48  38  68 SE3       30.21R
DIXON          FAIR      41  34  77 E5        30.25R
RAWLINS        FAIR      51  36  56 SW12      30.20R
SARATOGA       FAIR      43  34  70 CALM      30.23R
LARAMIE        FAIR      46  37  71 VRB3      30.21R
CHEYENNE       FAIR      52  40  63 NW8       30.16R
TORRINGTON     FAIR      51  50  96 NE5       30.05R
PINE BLUFFS    FAIR      48  46  93 S5        30.12R

$$



USA.gov is the U.S. government's official web portal to all federal, state and local government web resources and services.